Lid_Strength_Index
1 1 1 1 1 1 1 1 0 0 -0 -0 -0 -0 -0 0 0 -0 0 0 1 3
0 1 1 0 0 1 0 0 0 0 0 -0 -0 -0 -0 0 1 0 0 3 6 6
0 -0 1 1 1 0 0 0 0 1 0 0 0 -0 0 1 0 2 4 6 8 9
0 -0 -0 1 1 1 0 0 0 1 1 1 1 0 1 1 4 5 7 8 10 11
0 0 0 0 0 1 1 0 1 0 1 1 2 2 4 4 5 8 10 11 12 12
0 0 0 0 0 0 1 1 1 1 3 4 6 4 6 5 9 10 10 13 12 12
1 1 1 0 0 0 0 1 1 1 1 2 4 6 8 8 10 10 10 11 12 11
0 0 0 0 0 0 0 1 3 3 3 4 6 7 9 9 11 11 12 12 11 10
1 1 1 1 0 0 3 5 6 7 8 8 7 9 10 10 11 12 12 12 10 10
1 1 1 1 1 4 6 7 9 9 9 10 9 10 11 11 11 11 11 11 11 11
1 1 1 1 3 6 8 9 10 10 10 10 10 10 11 11 10 10 10 10 10 10
1 2 1 2 4 6 8 8 9 9 10 10 9 11 11 10 10 10 10 10 10 11
1 1 2 3 5 7 8 9 9 11 10 10 11 11 12 11 10 11 11 11 13 13
1 1 4 6 6 7 9 9 11 12 12 11 12 13 13 13 12 13 13 13 14 14